Content
SEND FEEDBACK

Daily
Averages
Monthly
Summary
United States of America

UMATAC, GUAM


Home > North America > United States > Guam
Elevation: 58 meters     Latitude: 13 17N     Longitude: 144 40E

WEATHER
 
SELECT A DAY
Number of Records: 342,038;   Date Range: 1/1/95 - 7/29/14
 
SHARE

PRINT THIS DATA

[ ← Previous Day ]
WEATHER ALMANAC - 28 APRIL, 2014
[ Next Day → ]
[ °F ]   °C
Weather ElementAverageHighLow
Temperature26.5 °C28 °C (1:03 pm)25 °C (1:50 am)
Dewpoint23.8 °C25.1 °C (8:58 am)23 °C (1:50 am)
Humidity85.7 %94 % (2:03 am)74 % (1:23 pm)
Barometer1008.8 hPa1010.5 hPa (9:10 am)1006.1 hPa (3:58 pm)
Wind Speed16.3 km/h25.9 km/h (10:20 am)
Wind Gust35.2 km/h (10:20 am)
Weather ElementAverage
Visibility14.8 km
Wind DirectionESE (98.3 °)

Weather ElementTotal
Precipitation0.25 mm
Cooling Degree Days8.2 (Base 18.3)
Growing Degree Days16.5 (Base 10)
Averaged from 93 records on 28 April, 2014
WEATHER CONDITIONS BREAKOUT
WIND DIRECTION BREAKOUT
WEATHER BY HOUR - 28 APRIL, 2014
[ °F ]   °C
Local TimeTemperatureDewpointHumidityBarometerVisibilityWind DirectionWind SpeedGust SpeedPrecipitationEventsConditions
1:50 AM25 °C23 °C89 %1008.1 hPa16.1 kmNE (50°)20.4 km/hMostly Cloudy
1:55 AM25 °C23 °C89 %1008.1 hPa16.1 kmENE (60°)16.7 km/hMostly Cloudy
1:58 AM25.3 °C23.4 °C89 %1007.1 hPa16.1 kmENE (60°)16.7 km/hMostly Cloudy
2:03 AM25 °C24 °C94 %1008.1 hPa16.1 kmENE (60°)16.7 km/hMostly Cloudy
2:08 AM25 °C23 °C89 %1008.1 hPa16.1 kmNE (50°)16.7 km/hMostly Cloudy
2:13 AM25 °C23 °C89 %1008.1 hPa16.1 kmNE (50°)16.7 km/hMostly Cloudy
2:18 AM25 °C23 °C89 %1008.1 hPa16.1 kmENE (60°)16.7 km/hMostly Cloudy
2:58 AM25.5 °C23.4 °C88 %1007.1 hPa16.1 kmENE (60°)14.8 km/hMostly Cloudy
3:43 AM26 °C24 °C89 %1007.8 hPa16.1 kmNE (40°)16.7 km/hMostly Cloudy
3:48 AM26 °C24 °C89 %1007.8 hPa16.1 kmNE (40°)14.8 km/hMostly Cloudy
3:53 AM26 °C24 °C89 %1007.8 hPa16.1 kmNE (40°)14.8 km/hScattered Clouds
3:58 AM25.5 °C23.8 °C90 %1006.8 hPa16.1 kmNE (40°)14.8 km/hScattered Clouds
4:58 AM25.6 °C23.6 °C89 %1007.1 hPa16.1 kmNE (50°)16.7 km/hMostly Cloudy
5:23 AM26 °C24 °C89 %1008.5 hPa16.1 kmNE (40°)14.8 km/hScattered Clouds
5:28 AM26 °C24 °C89 %1008.5 hPa16.1 kmNE (40°)16.7 km/hMostly Cloudy
5:33 AM26 °C24 °C89 %1008.5 hPa16.1 kmNE (40°)16.7 km/hMostly Cloudy
5:38 AM26 °C24 °C89 %1008.5 hPa16.1 kmNE (50°)16.7 km/hMostly Cloudy
5:58 AM25.7 °C23.4 °C87 %1007.5 hPa16.1 kmNE (50°)20.4 km/hMostly Cloudy
6:13 AM26 °C23 °C83 %1008.5 hPa16.1 kmNE (50°)18.5 km/hScattered Clouds
6:18 AM26 °C23 °C83 %1008.5 hPa16.1 kmNE (40°)18.5 km/hMostly Cloudy
6:23 AM26 °C24 °C89 %1008.5 hPa16.1 kmNE (40°)20.4 km/hRainLight Rain
6:33 AM26 °C24 °C89 %1008.8 hPa16.1 kmNE (50°)20.4 km/hMostly Cloudy
6:38 AM26 °C24 °C89 %1008.8 hPa16.1 kmNE (50°)18.5 km/hScattered Clouds
6:58 AM26.4 °C23.7 °C85 %1007.8 hPa16.1 kmENE (60°)20.4 km/h0 mmScattered Clouds
7:33 AM27 °C24 °C84 %1009.1 hPa16.1 kmNE (40°)18.5 km/hMostly Cloudy
7:38 AM27 °C24 °C84 %1009.1 hPa16.1 kmNE (40°)16.7 km/hMostly Cloudy
7:43 AM27 °C24 °C84 %1009.1 hPa16.1 kmNE (50°)20.4 km/hMostly Cloudy
7:53 AM27 °C24 °C84 %1009.5 hPa16.1 kmNE (40°)16.7 km/hMostly Cloudy
7:58 AM26.9 °C24 °C84 %1008.5 hPa16.1 kmNE (40°)22.2 km/hMostly Cloudy
8:03 AM27 °C24 °C84 %1009.5 hPa16.1 kmNE (40°)20.4 km/hMostly Cloudy
8:08 AM27 °C24 °C84 %1009.5 hPa16.1 kmNE (50°)18.5 km/hMostly Cloudy
8:13 AM27 °C24 °C84 %1009.8 hPa16.1 kmEast (90°)20.4 km/hMostly Cloudy
8:18 AM26 °C24 °C89 %1009.8 hPa16.1 kmEast (80°)18.5 km/hMostly Cloudy
8:53 AM27 °C25 °C89 %1010.2 hPa16.1 kmENE (70°)13 km/hMostly Cloudy
8:58 AM27.1 °C25.1 °C89 %1009.5 hPa16.1 kmEast (80°)20.4 km/hMostly Cloudy
9:10 AM27 °C24 °C84 %1010.5 hPa14.5 kmENE (70°)22.2 km/hRainLight Rain
9:15 AM27 °C25 °C89 %1010.5 hPa14.5 kmENE (60°)20.4 km/hLight Drizzle
9:20 AM27 °C25 °C89 %1010.2 hPa16.1 kmENE (70°)22.2 km/hLight Drizzle
9:25 AM27 °C25 °C89 %1010.5 hPa16.1 kmENE (70°)22.2 km/hMostly Cloudy
9:30 AM27 °C25 °C89 %1010.5 hPa16.1 kmENE (60°)20.4 km/hMostly Cloudy
9:35 AM27 °C25 °C89 %1010.2 hPa16.1 kmENE (70°)22.2 km/hMostly Cloudy
9:40 AM27 °C24 °C84 %1010.2 hPa16.1 kmNE (50°)22.2 km/hMostly Cloudy
9:45 AM27 °C23 °C79 %1010.2 hPa16.1 kmENE (60°)20.4 km/hScattered Clouds
9:58 AM27.3 °C23.4 °C79 %1009.5 hPa16.1 kmNNE (30°)20.4 km/h0 mmScattered Clouds
10:18 AM27 °C24 °C84 %1010.2 hPa16.1 kmENE (60°)20.4 km/hMostly Cloudy
10:20 AM27 °C25 °C89 %1010.2 hPa14.5 kmENE (60°)25.9 km/h35.2 km/hRainLight Rain
10:25 AM26 °C25 °C94 %1010.2 hPa11.3 kmENE (70°)22.2 km/h35.2 km/hRainLight Rain
10:30 AM26 °C25 °C94 %1010.2 hPa14.5 kmENE (70°)22.2 km/h35.2 km/hRainLight Rain
10:33 AM26 °C25 °C94 %1010.2 hPa16.1 kmENE (70°)22.2 km/hMostly Cloudy
10:38 AM27 °C25 °C89 %1010.2 hPa16.1 kmENE (60°)20.4 km/hMostly Cloudy
10:43 AM27 °C25 °C89 %1010.2 hPa16.1 kmENE (60°)24.1 km/hLight Drizzle
10:48 AM27 °C25 °C89 %1009.8 hPa16.1 kmENE (70°)18.5 km/hLight Drizzle
10:53 AM27 °C24 °C84 %1009.8 hPa16.1 kmENE (70°)22.2 km/hLight Drizzle
10:55 AM27 °C24 °C84 %1009.8 hPa16.1 kmENE (60°)20.4 km/hMostly Cloudy
10:58 AM27 °C24 °C84 %1008.8 hPa16.1 kmENE (70°)20.4 km/h0.25 mmScattered Clouds
11:58 AM27.7 °C23.6 °C78 %1008.8 hPa16.1 kmNE (50°)14.8 km/hMostly Cloudy
12:58 PM27.8 °C23.6 °C78 %1007.8 hPa16.1 kmNNE (30°)14.8 km/hMostly Cloudy
1:03 PM28 °C24 °C79 %1008.8 hPa16.1 kmNNE (20°)13 km/hMostly Cloudy
1:23 PM28 °C23 °C74 %1008.8 hPa16.1 kmNE (50°)13 km/hMostly Cloudy
1:48 PM28 °C23 °C74 %1008.5 hPa16.1 kmNE (40°)20.4 km/hMostly Cloudy
1:53 PM28 °C23 °C74 %1008.5 hPa16.1 kmNE (50°)18.5 km/hMostly Cloudy
1:58 PM27.7 °C23.2 °C76 %1007.5 hPa16.1 kmNE (50°)14.8 km/hMostly Cloudy
2:03 PM28 °C23 °C74 %1008.1 hPa16.1 kmENE (60°)14.8 km/hMostly Cloudy
2:08 PM28 °C23 °C74 %1008.1 hPa16.1 kmENE (70°)14.8 km/hMostly Cloudy
2:58 PM27.5 °C23.4 °C78 %1006.4 hPa14.5 kmNNE (30°)13 km/hClear
3:58 PM26.9 °C23.8 °C83 %1006.1 hPa14.5 kmNorth (360°)13 km/hScattered Clouds
4:03 PM27 °C24 °C84 %1007.1 hPa12.9 kmVariable9.3 km/hMostly Cloudy
4:58 PM26.7 °C23.5 °C82 %1006.4 hPa12.9 kmNorth (10°)13 km/hMostly Cloudy
5:48 PM27 °C23 °C79 %1007.8 hPa16.1 kmNE (40°)14.8 km/hMostly Cloudy
5:53 PM27 °C24 °C84 %1008.1 hPa16.1 kmNNE (30°)13 km/hMostly Cloudy
5:58 PM27 °C24 °C84 %1007.1 hPa16.1 kmNorth (10°)11.1 km/hMostly Cloudy
6:03 PM27 °C24 °C84 %1008.1 hPa16.1 kmNNE (20°)13 km/hMostly Cloudy
6:18 PM26 °C24 °C89 %1008.1 hPa16.1 kmNorth (350°)11.1 km/hMostly Cloudy
6:23 PM26 °C24 °C89 %1008.5 hPa16.1 kmNorth (10°)13 km/hMostly Cloudy
6:28 PM26 °C24 °C89 %1008.5 hPa16.1 kmNorth (360°)9.3 km/hMostly Cloudy
6:38 PM26 °C23 °C83 %1008.5 hPa16.1 kmNorth (10°)11.1 km/hScattered Clouds
6:58 PM26.1 °C23.3 °C84 %1007.8 hPa16.1 kmNorth (10°)9.3 km/hPartly Cloudy
7:28 PM26 °C23 °C83 %1008.8 hPa9.7 kmNorth (360°)11.1 km/hHaze
7:33 PM26 °C24 °C89 %1008.8 hPa8 kmNorth (360°)11.1 km/hHaze
7:38 PM26 °C24 °C89 %1008.8 hPa8 kmNorth (360°)11.1 km/hHaze
7:43 PM26 °C24 °C89 %1008.8 hPa9.7 kmNorth (360°)11.1 km/hHaze
7:58 PM26.5 °C23.6 °C84 %1008.1 hPa14.5 kmNorth (10°)11.1 km/hMostly Cloudy
8:18 PM26 °C24 °C89 %1009.5 hPa9.7 kmNorth (10°)11.1 km/hHaze
8:23 PM26 °C23 °C83 %1009.5 hPa9.7 kmNorth (10°)11.1 km/hHaze
8:28 PM26 °C24 °C89 %1009.5 hPa9.7 kmNorth (350°)11.1 km/hHaze
8:33 PM26 °C23 °C83 %1009.1 hPa9.7 kmNNW (340°)9.3 km/hHaze
8:38 PM26 °C23 °C83 %1009.5 hPa9.7 kmNW (320°)7.4 km/hHaze
8:44 PM26 °C24 °C89 %1009.5 hPa11.3 kmNW (320°)9.3 km/hRainLight Rain
8:54 PM26 °C24 °C89 %1009.5 hPa9.7 kmNNW (340°)9.3 km/hMostly Cloudy
8:58 PM25.8 °C23.9 °C89 %1008.5 hPa8 kmNNW (340°)7.4 km/h0 mmScattered Clouds
9:58 PM25.7 °C23.9 °C90 %1008.8 hPa11.3 kmNW (320°)9.3 km/hMostly Cloudy
10:58 PM25.8 °C23.5 °C87 %1008.8 hPa11.3 kmNW (310°)9.3 km/hScattered Clouds
11:58 PM25.7 °C23.5 °C88 %1008.1 hPa16.1 kmNW (320°)11.1 km/hScattered Clouds
Hourly data recorded from PGUA, located 0 kilometers away from Umatac, Guam







STORIES FROM OUR PARTNERS